This is the latest recevied weather packets stored in our database for station/object AJ5AG. If no packets are shown the sender has not sent any weather packets the latest 10 day(s).
| Time | Temp. | Humidity | Pressure | Rain* | Wind** | Luminosity | Snow |
|---|---|---|---|---|---|---|---|
| 1778190346 | 23.33° C | 65% | 1017.1 hPa | 0 mm | - | 95 W/m² | - |
| 1778190042 | 23.89° C | 60% | 1016.8 hPa | 0 mm | - | 102 W/m² | - |
| 1778189739 | 23.89° C | 60% | 1017 hPa | 0 mm | - | 127 W/m² | - |
| 1778189436 | 23.89° C | 59% | 1016.9 hPa | 0 mm | - | 136 W/m² | - |
| 1778189132 | 23.89° C | 60% | 1017 hPa | 0 mm | - | 156 W/m² | - |
| 1778188829 | 24.44° C | 58% | 1016.9 hPa | 0 mm | - | 178 W/m² | - |
| 1778188526 | 24.44° C | 57% | 1016.9 hPa | 0 mm | - | 162 W/m² | - |
| 1778188222 | 24.44° C | 58% | 1017 hPa | 0 mm | - | 167 W/m² | - |
| 1778187919 | 24.44° C | 60% | 1017 hPa | 0 mm | - | 210 W/m² | - |
| 1778187616 | 24.44° C | 59% | 1017.6 hPa | 0 mm | - | 217 W/m² | - |
| 1778187313 | 24.44° C | 56% | 1017.3 hPa | 0 mm | - | 163 W/m² | - |
| 1778187009 | 24.44° C | 57% | 1017.6 hPa | 0 mm | - | 196 W/m² | - |
| 1778186705 | 23.89° C | 57% | 1017.4 hPa | 0 mm | - | 200 W/m² | - |
| 1778186403 | 24.44° C | 56% | 1017.8 hPa | 0 mm | - | 172 W/m² | - |
| 1778186101 | 24.44° C | 59% | 1017.6 hPa | 0 mm | - | 512 W/m² | - |
| 1778185797 | 23.89° C | 57% | 1017.5 hPa | 0 mm | - | 301 W/m² | - |
| 1778185493 | 23.89° C | 61% | 1017.5 hPa | 0 mm | - | 258 W/m² | - |
| 1778185190 | 23.89° C | 59% | 1017.8 hPa | 0 mm | - | 257 W/m² | - |
| 1778184890 | 24.44° C | 57% | 1017.8 hPa | 0 mm | - | 320 W/m² | - |
| 1778184587 | 24.44° C | 60% | 1017.9 hPa | 0 mm | - | 702 W/m² | - |
| 1778184282 | 24.44° C | 59% | 1017.7 hPa | 0 mm | - | 258 W/m² | - |
| 1778183978 | 23.89° C | 58% | 1017.9 hPa | 0 mm | - | 492 W/m² | - |
| 1778183677 | 24.44° C | 59% | 1017.9 hPa | 0 mm | - | 247 W/m² | - |
| 1778183374 | 23.89° C | 61% | 1018.2 hPa | 0 mm | - | 284 W/m² | - |
| 1778183070 | 24.44° C | 58% | 1018.1 hPa | 0 mm | - | 375 W/m² | - |
* Rain latest hour (hover to see other rain measurements)
** Current wind speed in m/s (hover to see current wind gust speed)